[[{"header":{"parameterUnit":"m.s-1","parameterCategory":1,"la1":30.2991,"la2":30.254,"lo1":-89.0895,"lo2":-89.0444,"dy":0.0017,"dx":0.0017,"nx":28,"ny":28,"refTime":"2024-05-22T03:00:00:Z","depth":0,"parameterNumber":2,"parameterNumberName":"U-component_of_WINDS"},"data":[0,0,0,0,0,0,0,0,0,0,0,0,0,0,0,0,0,0,0,0,0,0,0,0,0,0,0,0,0,0,0,0,0,0,0,0,0,0,0,0,0,0,0,0,0,0,0,0,0,0,0,0,0,0,0,0,0,0,-1.3615,-1.3615,0,-1.3615,-1.3615,-1.3615,-1.3594,-1.3594,-1.3593,-1.3593,-1.3593,-1.3594,-1.3595,0,0,0,0,0,0,0,0,0,0,0,0,0,-1.3598,-1.3598,-1.3615,-1.3615,-1.3615,-1.3615,-1.3615,-1.3615,-1.3595,-1.3594,-1.3593,-1.3593,-1.3593,-1.3594,-1.3595,0,0,0,0,0,0,0,0,0,0,0,0,0,-1.3603,-1.3599,-1.3615,-1.3605,-1.3604,-1.3615,-1.3615,-1.3615,-1.3595,-1.3594,-1.3593,-1.3592,-1.3593,-1.3594,-1.3595,-1.3616,0,0,-1.3597,-1.3597,0,0,0,0,0,0,0,0,-1.3602,-1.3603,-1.3606,-1.3605,-1.3604,-1.3604,-1.3609,-1.3615,-1.3595,-1.3598,-1.3593,-1.3592,-1.3598,-1.3598,-1.36,-1.3616,-1.3616,-1.3597,-1.3598,-1.3598,-1.3598,0,0,0,0,0,0,0,-1.3602,-1.3603,-1.3615,-1.3606,-1.3605,-1.36,-1.36,-1.361,-1.3602,-1.3598,-1.3596,-1.3597,-1.3597,-1.3599,-1.36,-1.3616,-1.3597,-1.3598,-1.3598,-1.3599,-1.365,-1.3651,0,0,0,0,0,0,-1.3603,-1.3603,-1.3615,-1.3615,-1.3601,-1.3601,-1.3601,-1.3605,-1.3602,-1.3601,-1.3597,-1.3596,-1.3598,-1.3599,-1.36,-1.3624,-1.3598,-1.3599,-1.3599,-1.3649,-1.365,-1.3651,0,0,0,0,0,0,-1.3603,-1.3604,-1.3615,-1.3608,-1.3609,-1.3603,-1.3607,-1.3605,-1.3607,-1.3602,-1.36,-1.3601,-1.3598,-1.3599,-1.3612,-1.3624,-1.3599,-1.36,-1.3648,-1.3649,-1.365,-1.3674,0,0,0,0,0,0,-1.3602,-1.3604,-1.3612,-1.3609,-1.361,-1.3627,-1.3608,-1.3606,-1.3609,-1.3606,-1.3605,-1.3604,-1.3597,-1.3611,-1.3613,-1.3625,-1.36,-1.3647,-1.3648,-1.365,-1.3672,-1.3676,-1.3679,0,0,0,0,0,-1.3602,-1.3618,-1.3612,-1.3614,-1.3619,-1.3628,-1.3628,-1.362,-1.361,-1.3617,-1.3614,-1.3604,-1.3623,-1.3612,-1.3614,-1.3627,-1.3646,-1.3648,-1.365,-1.367,-1.3675,-1.3679,0,0,0,0,0,0,-1.3623,-1.3618,-1.3611,-1.3627,-1.3628,-1.3624,-1.3633,-1.3625,-1.3629,-1.3627,-1.3617,-1.3617,-1.3632,-1.3631,-1.3619,-1.3647,-1.3632,-1.3635,-1.3647,-1.3652,-1.3655,-1.3655,-1.3601,0,0,0,0,0,-1.3629,-1.3636,-1.3632,-1.3646,-1.3647,-1.364,-1.3644,-1.3637,-1.3638,-1.3638,-1.3636,-1.3637,-1.3643,-1.3648,-1.3653,-1.3672,-1.3671,-1.3681,-1.3685,-1.3688,-1.369,-1.37,-1.3705,-1.3657,-1.3657,-1.3657,0,0,-1.3643,-1.3641,-1.3646,-1.365,-1.365,-1.3658,-1.3641,-1.365,-1.3655,-1.364,-1.3652,-1.3651,-1.3651,-1.3668,-1.3675,-1.3667,-1.3703,-1.369,-1.3693,-1.3693,-1.3703,-1.3707,-1.3711,-1.3659,-1.3659,-1.3658,0,0,-1.3671,-1.3671,-1.3683,-1.3683,-1.3683,-1.3679,-1.3682,-1.368,-1.3678,-1.3691,-1.3679,-1.3686,-1.3697,-1.3698,-1.37,-1.373,-1.3721,-1.3733,-1.3751,-1.3761,-1.3765,-1.3768,-1.3779,-1.3783,-1.3735,-1.3735,-1.3735,0,-1.3688,-1.3699,-1.369,-1.37,-1.3703,-1.3689,-1.3702,-1.3703,-1.3705,-1.3707,-1.3698,-1.3712,-1.3712,-1.3728,-1.3736,-1.3738,-1.3741,-1.3732,-1.3765,-1.3768,-1.3771,-1.3781,-1.3786,-1.3736,-1.3736,-1.3736,-1.3736,0,-1.372,-1.3728,-1.3738,-1.374,-1.3744,-1.3755,-1.3748,-1.3753,-1.3747,-1.3744,-1.3757,-1.3756,-1.3761,-1.3765,-1.3759,-1.3781,-1.3776,-1.3767,-1.3752,-1.3777,-1.3787,-1.379,-1.3738,-1.3738,-1.3737,-1.3737,0,0,-1.376,-1.3758,-1.3762,-1.3763,-1.3763,-1.3769,-1.378,-1.3785,-1.379,-1.3792,-1.3801,-1.3811,-1.3803,-1.3805,-1.3799,-1.3808,-1.3833,-1.3798,-1.3797,-1.3804,-1.3857,-1.3864,-1.3869,-1.3827,-1.3827,-1.3828,-1.3857,0,-1.3788,-1.3806,-1.3799,-1.3818,-1.3825,-1.3813,-1.3823,-1.3824,-1.3822,-1.3828,-1.3825,-1.3832,-1.382,-1.3822,-1.383,-1.3828,-1.3843,-1.3826,-1.3835,-1.3836,-1.3835,-1.3874,-1.3881,-1.3908,-1.3861,-1.3861,-1.3862,0,-1.3822,-1.3826,-1.3846,-1.3845,-1.3848,-1.3856,-1.3861,-1.3867,-1.3868,-1.3866,-1.3869,-1.3862,-1.3873,-1.3858,-1.3874,-1.3862,-1.3866,-1.3865,-1.3866,-1.3866,-1.385,-1.3875,-1.3917,-1.3921,-1.3867,-1.3867,-1.3867,0,-1.385,-1.386,-1.3873,-1.3875,-1.3874,-1.388,-1.388,-1.3881,-1.3885,-1.3889,-1.3891,-1.3897,-1.39,-1.3905,-1.3899,-1.3889,-1.3915,-1.39,-1.3914,-1.3914,-1.3919,-1.3919,-1.3962,-1.3922,-1.3922,-1.3922,-1.3922,0,-1.3881,-1.3894,-1.3886,-1.3894,-1.3908,-1.39,-1.3914,-1.3913,-1.3914,-1.3922,-1.3912,-1.3919,-1.3911,-1.3919,-1.3914,-1.3928,-1.393,-1.3928,-1.3927,-1.3929,-1.3929,-1.3931,-1.3928,-1.3923,-1.3923,-1.3923,-1.3923,0,-1.3915,-1.391,-1.3923,-1.3922,-1.3921,-1.3932,-1.3931,-1.3938,-1.3935,-1.3946,-1.3948,-1.3943,-1.3951,-1.3946,-1.3954,-1.3951,-1.3969,-1.3965,-1.3969,-1.3968,-1.3981,-1.398,-1.4027,-1.4033,-1.3989,-1.399,-1.399,0,-1.3935,-1.3944,-1.3944,-1.3948,-1.3949,-1.3956,-1.396,-1.3953,-1.3958,-1.396,-1.3968,-1.3975,-1.398,-1.3994,-1.3992,-1.3998,-1.3994,-1.401,-1.3995,-1.3997,-1.3994,-1.3994,-1.3995,-1.4013,-1.4014,-1.4014,-1.4014,0,-1.3971,-1.3968,-1.3974,-1.3979,-1.3984,-1.3988,-1.3991,-1.3996,-1.3989,-1.3994,-1.4002,-1.4006,-1.4015,-1.4022,-1.4028,-1.4028,-1.402,-1.4019,-1.4023,-1.4025,-1.4026,-1.4026,-1.3977,-1.4018,-1.4018,-1.4017,-1.4017,-1.4017,-1.3998,-1.4006,-1.4007,-1.4014,-1.4016,-1.4019,-1.4026,-1.4025,-1.4031,-1.4037,-1.4033,-1.4043,-1.4044,-1.4051,-1.4053,-1.406,-1.4054,-1.4059,-1.406,-1.4061,-1.4063,-1.4025,-1.4061,-1.4061,-1.4061,-1.4061,-1.4061,0,-1.4034,-1.4034,-1.4041,-1.4046,-1.4051,-1.4043,-1.4047,-1.4052,-1.406,-1.4063,-1.4068,-1.4078,-1.4085,-1.4084,-1.4091,-1.4097,-1.4094,-1.4099,-1.4098,-1.4099,-1.4069,-1.4065,-1.4102,-1.4102,-1.4102,-1.4102,-1.4102,-1.4102,-1.4054,-1.4067,-1.4064,-1.4078,-1.4078,-1.4088,-1.409,-1.4093,-1.4095,-1.4106,-1.4112,-1.4111,-1.4112,-1.4119,-1.4126,-1.4125,-1.4128,-1.4135,-1.4133,-1.4105,-1.4101,-1.4097,-1.4093,-1.4135,-1.4135,-1.4162,-1.4162,-1.4162]},{"header":{"parameterUnit":"m.s-1","parameterCategory":1,"la1":30.2991,"la2":30.254,"lo1":-89.0895,"lo2":-89.0444,"dy":0.0017,"dx":0.0017,"nx":28,"ny":28,"refTime":"2024-05-22T03:00:00:Z","depth":0,"parameterNumber":3,"parameterNumberName":"V-component_of_WINDS"},"data":[0,0,0,0,0,0,0,0,0,0,0,0,0,0,0,0,0,0,0,0,0,0,0,0,0,0,0,0,0,0,0,0,0,0,0,0,0,0,0,0,0,0,0,0,0,0,0,0,0,0,0,0,0,0,0,0,0,0,4.9787,4.9787,0,4.9802,4.9802,4.9802,4.9711,4.9709,4.9706,4.9704,4.9718,4.9721,4.9723,0,0,0,0,0,0,0,0,0,0,0,0,0,4.9678,4.9681,4.9787,4.9787,4.9787,4.9802,4.9802,4.9802,4.9712,4.9709,4.9706,4.9703,4.9717,4.972,4.9724,0,0,0,0,0,0,0,0,0,0,0,0,0,4.9713,4.9682,4.9787,4.9744,4.974,4.9802,4.9802,4.9802,4.9713,4.9709,4.9705,4.9701,4.9716,4.972,4.9724,4.9827,0,0,4.9737,4.9739,0,0,0,0,0,0,0,0,4.9711,4.9717,4.975,4.9747,4.9743,4.9751,4.9769,4.9811,4.9713,4.9723,4.9704,4.9699,4.9732,4.9735,4.9746,4.9828,4.9828,4.9737,4.974,4.9742,4.9743,0,0,0,0,0,0,0,4.9709,4.9716,4.9793,4.9751,4.9746,4.9723,4.9724,4.9776,4.9749,4.9722,4.9715,4.9718,4.9729,4.9742,4.9745,4.9829,4.9737,4.9741,4.9743,4.9745,4.9996,5.0,0,0,0,0,0,0,4.9712,4.9714,4.9792,4.9793,4.9717,4.9729,4.9729,4.9752,4.9748,4.9744,4.9722,4.9714,4.9737,4.9741,4.9746,4.9866,4.9741,4.9745,4.9748,4.9992,4.9997,5.0001,0,0,0,0,0,0,4.971,4.972,4.9792,4.9752,4.9759,4.9735,4.9761,4.9755,4.9767,4.9748,4.9742,4.974,4.9734,4.974,4.9808,4.9865,4.9747,4.9751,4.9987,4.9993,4.9999,5.0108,0,0,0,0,0,0,4.9708,4.972,4.9759,4.9754,4.9762,4.9854,4.9765,4.9758,4.9775,4.9765,4.9764,4.976,4.9731,4.9802,4.9812,4.9869,4.9754,4.9981,4.999,4.9997,5.0099,5.0117,5.0132,0,0,0,0,0,4.9704,4.9789,4.9762,4.9772,4.9811,4.9858,4.9862,4.9828,4.978,4.9819,4.9806,4.976,4.9857,4.981,4.982,4.9879,4.9978,4.9987,4.9996,5.0091,5.0113,5.0132,0,0,0,0,0,0,4.9802,4.9788,4.9757,4.9843,4.9852,4.9842,4.9891,4.9853,4.9876,4.9866,4.9822,4.9822,4.9898,4.9895,4.9842,4.9978,4.9909,4.9921,4.9978,4.9998,5.0015,5.0014,4.9758,0,0,0,0,0,4.9833,4.9873,4.9858,4.9936,4.9942,4.9916,4.9935,4.9908,4.9916,4.9919,4.9912,4.9921,4.9953,4.9975,5.0004,5.0098,5.0096,5.0144,5.016,5.0174,5.0185,5.0234,5.0255,5.0032,5.0032,5.0032,0,0,4.9899,4.9896,4.9924,4.9955,4.9959,5.0001,4.992,4.9967,4.9998,4.9926,4.999,4.9985,4.9992,5.0073,5.0109,5.0073,5.0246,5.0186,5.0197,5.0201,5.0246,5.0267,5.0286,5.0038,5.0037,5.0036,0,0,5.004,5.0042,5.0106,5.0112,5.0119,5.0101,5.0117,5.0113,5.0107,5.017,5.0117,5.0153,5.021,5.0217,5.0228,5.0372,5.033,5.0383,5.047,5.0518,5.0536,5.0551,5.0602,5.0621,5.0393,5.0394,5.0394,0,5.012,5.0182,5.0144,5.0196,5.0211,5.0148,5.0213,5.022,5.0237,5.0248,5.0209,5.0279,5.0279,5.0361,5.0396,5.0408,5.0424,5.0383,5.0537,5.0552,5.0565,5.0614,5.0633,5.04,5.0399,5.0399,5.0398,0,5.028,5.0323,5.0374,5.0392,5.0413,5.0471,5.0442,5.0468,5.0439,5.0425,5.049,5.0488,5.0516,5.0533,5.0506,5.0612,5.0589,5.0544,5.0473,5.0594,5.0638,5.0656,5.0409,5.0407,5.0405,5.0403,0,0,5.0483,5.0479,5.0499,5.0506,5.0509,5.0542,5.0597,5.0624,5.0647,5.066,5.0705,5.0755,5.0713,5.0726,5.0698,5.0741,5.0854,5.0689,5.0689,5.072,5.0971,5.1005,5.1027,5.0827,5.083,5.0833,5.097,0,5.062,5.0714,5.0682,5.0778,5.0817,5.0758,5.0806,5.0813,5.0802,5.0833,5.082,5.0856,5.0798,5.0805,5.0845,5.0832,5.0904,5.0822,5.0867,5.087,5.0868,5.1051,5.1087,5.1217,5.0988,5.099,5.0993,0,5.0793,5.0814,5.0914,5.0911,5.0926,5.097,5.0992,5.1023,5.103,5.1018,5.1033,5.0996,5.1049,5.0979,5.1051,5.0996,5.1013,5.101,5.1014,5.1016,5.0938,5.1058,5.1258,5.1277,5.102,5.1018,5.1016,0,5.0931,5.0984,5.1051,5.1059,5.1056,5.1088,5.1089,5.1092,5.111,5.113,5.1141,5.1166,5.118,5.1201,5.1172,5.1123,5.1248,5.1175,5.124,5.1241,5.1269,5.1268,5.1474,5.128,5.128,5.128,5.1279,0,5.1088,5.1152,5.1112,5.1154,5.1222,5.1185,5.1254,5.1247,5.1251,5.1289,5.1239,5.1276,5.1236,5.1269,5.1247,5.131,5.1317,5.1309,5.1302,5.1313,5.1314,5.1323,5.1314,5.1285,5.1284,5.1283,5.1282,0,5.1254,5.123,5.1299,5.1291,5.1291,5.1342,5.1335,5.1373,5.1358,5.1407,5.1416,5.1393,5.1429,5.1402,5.1438,5.1423,5.1506,5.1487,5.1505,5.1499,5.1565,5.156,5.1785,5.1812,5.1601,5.1603,5.1605,0,5.1356,5.1403,5.1401,5.1423,5.1427,5.1464,5.1482,5.1447,5.1468,5.1479,5.1515,5.1547,5.1571,5.1632,5.1618,5.1645,5.1626,5.1703,5.163,5.164,5.1627,5.1625,5.1629,5.1718,5.172,5.1722,5.1724,0,5.1539,5.1525,5.1554,5.158,5.1603,5.1621,5.1635,5.1656,5.162,5.1646,5.1683,5.1702,5.1738,5.1771,5.1793,5.1793,5.1753,5.1747,5.1764,5.1776,5.1784,5.178,5.1545,5.1742,5.174,5.1739,5.1738,5.1737,5.1676,5.1715,5.172,5.1754,5.1761,5.1775,5.1809,5.1799,5.1829,5.1856,5.1833,5.1878,5.1883,5.1908,5.1913,5.1947,5.1915,5.1939,5.1945,5.1951,5.1961,5.1779,5.1951,5.195,5.195,5.1949,5.1949,0,5.1857,5.1857,5.1888,5.191,5.1936,5.1896,5.191,5.1934,5.1974,5.1982,5.2007,5.2049,5.208,5.2069,5.2097,5.2126,5.2108,5.2134,5.2132,5.2133,5.1988,5.1971,5.2148,5.2148,5.2148,5.2148,5.2148,5.2148,5.1954,5.2019,5.2005,5.2072,5.2071,5.2115,5.2126,5.2138,5.2145,5.2194,5.222,5.2212,5.2213,5.224,5.2267,5.2262,5.2275,5.2308,5.2297,5.2162,5.2143,5.2124,5.2108,5.2311,5.2311,5.2439,5.244,5.2441]}]]